Tracking 31027 objects as of 19-Jul-2025
HD Live streaming from Space Station
objects crossing your sky now

FENGYUN 1C DEB

Track FENGYUN 1C DEB now!
10-day predictions


NORAD ID: 30448
Int'l Code: 1999-025AFK
Perigee: 773.6 km
Apogee: 803.0 km
Inclination: 98.8 °
Period: 100.5 minutes
Semi major axis: 7159 km
RCS: 0.055 m2 (small)
Launch date: May 10, 1999
Source: People's Republic of China (PRC)
Launch site: Taiyaun Space Center, China (TSC)

Note: This is SATELLITE DEBRIS
Your satellite tracking list
FENGYUN 1C DEB
Track 1 satellite(s)




NASA's NSSDC Master Catalog

Two Line Element Set (TLE):
1 30448U 99025AFK 25199.50880248  .00003110  00000-0  11463-2 0  9997
2 30448  98.8344 287.9938 0020518  88.0893 292.9673 14.33168914952289
Source of the keplerian elements: AFSPC